Flight Track Log - Related Links

Times and Time Zones

All times are in EDT time to prevent confusion due to time zone crossing. See the LBQ792 flight status page for this flight to view local times or setup timezone preferences in your user account.

Time Position Orientation Groundspeed Altitude Reporting Facility
EDT Latitude Longitude Course Direction KTS MPH feet Rate Location/Type
Wed 10:10:07 PM 43.1114 -76.0753 81° East 145 167 1,300  Level Boston Center
Wed 10:11:08 PM 43.1433 -76.0572 22° Northeast 176 203 2,800 1,500 Climbing Boston Center
Wed 10:12:15 PM 43.1792 -76.1078 314° West 165 190 4,500 1,488 Climbing Boston Center
Wed 10:13:09 PM 43.1922 -76.1597 289° West 168 193 5,800 783 Climbing Boston Center
Wed 10:14:10 PM 43.1856 -76.2333 263° West 213 245 6,000 94 Climbing Boston Center
Wed 10:15:17 PM 43.1803 -76.3272 266° West 237 273 6,000  Level Boston Center
Wed 10:16:11 PM 43.1756 -76.4067 265° West 236 272 6,000  Level Boston Center
Wed 10:17:12 PM 43.1744 -76.4978 269° West 238 274 6,000  Level Boston Center
Wed 10:18:12 PM 43.1708 -76.5942 267° West 240 276 6,000  Level Boston Center
Wed 10:19:13 PM 43.1697 -76.6853 269° West 240 276 6,000  Level Boston Center
Wed 10:19:37 PM 43.1669 -76.7231 264° West 241 277 6,000  Level Cleveland Center
Wed 10:20:38 PM 43.1678 -76.8142 271° West 239 275 6,000  Level Cleveland Center
Wed 10:21:44 PM 43.1647 -76.9111 268° West 238 274 6,000  Level Cleveland Center
Wed 10:22:39 PM 43.1633 -76.9939 269° West 237 273 6,000  Level Cleveland Center
Wed 10:23:40 PM 43.1597 -77.0850 267° West 239 275 6,000  Level Cleveland Center
Wed 10:24:46 PM 43.1522 -77.1853 264° West 242 278 6,000  Level Cleveland Center
Wed 10:25:53 PM 43.1428 -77.2881 263° West 240 276 6,000 -627 Level Cleveland Center
Wed 10:27:00 PM 43.1372 -77.3881 266° West 248 285 4,600 -1,398 Descending Cleveland Center
Wed 10:28:06 PM 43.1319 -77.4994 266° West 252 290 2,900 -1,087 Descending Cleveland Center
Wed 10:29:07 PM 43.1278 -77.5850 266° West 193 222 2,300 -787 Descending Cleveland Center
Wed 10:30:08 PM 43.1292 -77.6361 272° West 120 138 1,300 -984 Descending Cleveland Center
Wed 10:32:00 PM 43.1167 -77.6667 270° West  Level FlightAware Approximate
Wed 10:39:00 PM 43.1191 -77.6719 270° West  Level Estimated

Login

Don't have an account? Register now (free) for customized features, flight alerts, and more!